Location: Berg
(47.2344°N, 9.5296°E)
Time: 14:37:14
(UTC+00:00)

Cosmos 44 - Pass Details

Date: 16 May 2021
Orbit: 571 x 791 km, 65.1° (Epoch: 13 June)

Event Time Altitude Azimuth Distance (km) Brightness Sun altitude
Rises 21:26:26 0° 317° (NW) 3,290 8.2 -18.9°
Reaches altitude 10° 21:29:03 10° 309° (NW) 2,346 7.0 -19.1°
Maximum altitude 21:33:54 35° 245° (WSW) 1,225 4.5 -19.4°
Enters shadow 21:35:57 26° 203° (SSW) 1,472 4.6 -19.6°
